Location: Praha
(50.0830°N, 14.4670°E)
Time: 04:27:26
(UTC+02:00)

ISS - Pass Details

Date: 18 May 2021
Orbit: 417 x 422 km, 51.6° (Epoch: 13 June)

Event Time Altitude Azimuth Distance (km) Brightness Sun altitude
Rises 01:17:14 0° 285° (WNW) 2,370 0.2 -20.2°
Reaches altitude 10° 01:19:20 10° 285° (WNW) 1,506 -0.8 -20.2°
Enters shadow 01:22:37 83° 308° (NW) 429 -3.8 -20.2°
